"Pseudo-MPEC" for P22hXF9

Created 2025 Dec 15 22:35:10 UT using Find_Orb

Click here for an explanation of pseudo-MPECs

 
 Astrometry: 
     P22hXF9* C2025 11 27.54593606 52 22.574+75 18 06.07   ~BRFK 20.81wXNEOCPF52
     P22hXF9  C2025 11 27.55988206 52 23.031+75 18 26.81   ~BRFK 21.13wXNEOCPF52
     P22hXF9  C2025 11 27.58781906 52 24.013+75 19 08.09   ~BRFK 20.78wXNEOCPF52
     P22hXF9  C2025 11 27.64456106 52 26.125+75 20 30.39   ~BRIK 21.00GVNEOCPF51
     P22hXF9  C2025 11 27.64520406 52 26.115+75 20 31.95   ~BRIK 21.04GVNEOCPF51
     P22hXF9 0C2025 11 28.80420906 53 23.111+75 48 43.70   ~BT05 20.3 GXNEOCPR59
     P22hXF9 0C2025 11 28.86417206 53 25.551+75 50 15.04   ~BT0K 21.0 GXNEOCPR59
     P22hXF9 0C2025 11 28.90220806 53 26.821+75 51 08.76   ~BT05x20.1 GXNEOCPR59
     P22hXF9 0C2025 11 28.96611606 53 29.417+75 52 45.73   ~BT0K 20.8 GXNEOCPR59
     P22hXF9  C2025 12 14.47509106 46 42.894+80 52 14.50   ~CF05 20.95GVNEOCPF51
     P22hXF9  C2025 12 14.48886006 46 40.969+80 52 26.08   ~CF05 20.83GVNEOCPF51
     P22hXF9  C2025 12 14.50252006 46 39.107+80 52 37.36   ~CF05 20.86GVNEOCPF51
     P22hXF9  C2025 12 14.51617106 46 37.149+80 52 48.68   ~CF05 20.38GVNEOCPF51

Station data:
(F51) Pan-STARRS 1, Haleakala  (N20.707234 W156.255910)  US/Hawaii.
   Observers J. Herman, T. Lowe, P. Minguez, A. Schultz, I. Smith. Measurers
   K. Chambers, T. de Boer, J. Fairlamb, H. Gao, M. Huber, C.-C. Lin, E.
   Magnier, Y. Ramanjooloo, R. Wainscoat, R. Weryk. 1.8-m Ritchey-Chrétien +
   CCD.
(F52) Pan-STARRS 2, Haleakala  (N20.707382 W156.255910)  US/Hawaii.
   Observers J. Herman, T. Lowe, P. Minguez, A. Schultz, I. Smith. Measurers
   K. Chambers, T. de Boer, J. Fairlamb, H. Gao, M. Huber, C.-C. Lin, E.
   Magnier, Y. Ramanjooloo, R. Wainscoat, R. Weryk. 1.8-m Ritchey-Chrétien +
   CCD.
(R59) Camarasa Observatory, Astrocamp Nerpio  (N38.165429 W2.326580)  Spain.

Orbital elements:  P22hXF9
   Perihelion 2025 Dec 11.669010 +/- 0.504 TT = 16:03:22.5 (JD 2461021.169010)
Epoch 2025 Dec 14.0 TT = JDT 2461023.5   Earth MOID: 0.8194      AutoNEOCP
M   0.549278205 +/- 0.11            (J2000 ecliptic)
n   0.235641638 +/- 0.00142         Peri.   69.612100 +/- 0.35
a   2.595980104 +/- 0.0105          Node    17.311540 +/- 0.11
e   0.36803427 +/- 0.00184          Incl.   29.041264 +/- 0.058
P   4.18265                H 18.85  G  0.15   U  8.3
q 1.640570439 +/- 0.00189    Q 3.551389768 +/- 0.0192
12 of 13 observations 2025 Nov. 27-Dec. 14; mean residual 0".30
Residuals in arcseconds: 
251127 F52  .02+  .07+    251128 R59  .38+  .63-    251214 F51  .01+  .01+    
251127 F52  .09-  .11+    251128 R59  .38-  1.0+    251214 F51  .04+  .02-    
251127 F52  .07-  .15+    251128 R59( 1.3-  2.1-)   251214 F51  .17-  .07+    
251127 F51  .13+  .46-    251128 R59  .06-  .23-    
251127 F51  .00   .17+    251214 F51  .10+  .08-    

Ephemerides (geocentric):
Date (UTC) HH   RA             Dec           delta  r     elong  mag " sig PA
---- --------  ------------   ------------  ------ ------ -----  --- --------
2025 12 15 23  06 43 41.624   +81 11 48.79  .89442 1.6409 121.7 21.0 .588  61
2025 12 16 00  06 43 36.132   +81 12 20.48  .89446 1.6409 121.7 21.0 .606  61
2025 12 16 01  06 43 30.618   +81 12 52.08  .89450 1.6410 121.6 21.0 .624  61
2025 12 16 02  06 43 25.081   +81 13 23.59  .89454 1.6410 121.6 21.0 .642  61
2025 12 16 03  06 43 19.523   +81 13 55.02  .89458 1.6410 121.6 21.0 .661  61
2025 12 16 04  06 43 13.942   +81 14 26.36  .89462 1.6410 121.6 21.0 .679  61
2025 12 16 05  06 43 08.339   +81 14 57.62  .89466 1.6410 121.6 21.0 .698  61
2025 12 16 06  06 43 02.714   +81 15 28.79  .89470 1.6410 121.6 21.0 .716  60
2025 12 16 07  06 42 57.067   +81 15 59.87  .89474 1.6410 121.6 21.0 .735  60
2025 12 16 08  06 42 51.397   +81 16 30.87  .89478 1.6410 121.6 21.0 .754  60
2025 12 16 09  06 42 45.706   +81 17 01.79  .89482 1.6410 121.6 21.0 .773  60
2025 12 16 10  06 42 39.992   +81 17 32.62  .89486 1.6410 121.6 21.0 .792  60
2025 12 16 11  06 42 34.256   +81 18 03.36  .89490 1.6410 121.6 21.0 .811  60
2025 12 16 12  06 42 28.499   +81 18 34.02  .89494 1.6410 121.6 21.0 .830  60
2025 12 16 13  06 42 22.719   +81 19 04.59  .89499 1.6410 121.6 21.0 .849  60
2025 12 16 14  06 42 16.917   +81 19 35.07  .89503 1.6411 121.6 21.0 .868  60
2025 12 16 15  06 42 11.093   +81 20 05.47  .89507 1.6411 121.6 21.0 .888  60
2025 12 16 16  06 42 05.248   +81 20 35.78  .89511 1.6411 121.6 21.0 .907  60
2025 12 16 17  06 41 59.380   +81 21 06.01  .89515 1.6411 121.6 21.0 .927  60
2025 12 16 18  06 41 53.490   +81 21 36.14  .89519 1.6411 121.6 21.0 .947  60
2025 12 16 19  06 41 47.579   +81 22 06.20  .89524 1.6411 121.6 21.0 .966  60
2025 12 16 20  06 41 41.645   +81 22 36.16  .89528 1.6411 121.6 21.0 .986  60
2025 12 16 21  06 41 35.690   +81 23 06.04  .89532 1.6411 121.6 21.0 1.01  60
2025 12 16 22  06 41 29.713   +81 23 35.83  .89536 1.6411 121.6 21.0 1.03  60
2025 12 16 23  06 41 23.713   +81 24 05.54  .89541 1.6411 121.6 21.0 1.05  60
2025 12 17 00  06 41 17.693   +81 24 35.16  .89545 1.6411 121.6 21.0 1.07  60
2025 12 17 01  06 41 11.650   +81 25 04.69  .89549 1.6412 121.6 21.0 1.09  59
2025 12 17 02  06 41 05.585   +81 25 34.13  .89553 1.6412 121.6 21.0 1.11  59
2025 12 17 03  06 40 59.499   +81 26 03.49  .89558 1.6412 121.6 21.0 1.13  59
2025 12 17 04  06 40 53.391   +81 26 32.76  .89562 1.6412 121.6 21.0 1.15  59
2025 12 17 05  06 40 47.262   +81 27 01.94  .89566 1.6412 121.6 21.0 1.17  59
2025 12 17 06  06 40 41.110   +81 27 31.03  .89571 1.6412 121.6 21.0 1.19  59
2025 12 17 07  06 40 34.937   +81 28 00.04  .89575 1.6412 121.6 21.0 1.21  59
2025 12 17 08  06 40 28.743   +81 28 28.96  .89580 1.6412 121.6 21.0 1.23  59
2025 12 17 09  06 40 22.527   +81 28 57.79  .89584 1.6412 121.5 21.0 1.25  59
2025 12 17 10  06 40 16.289   +81 29 26.54  .89588 1.6412 121.5 21.0 1.27  59
2025 12 17 11  06 40 10.030   +81 29 55.20  .89593 1.6412 121.5 21.0 1.29  59
2025 12 17 12  06 40 03.749   +81 30 23.76  .89597 1.6413 121.5 21.0 1.32  59
2025 12 17 13  06 39 57.447   +81 30 52.25  .89602 1.6413 121.5 21.0 1.34  59
2025 12 17 14  06 39 51.123   +81 31 20.64  .89606 1.6413 121.5 21.0 1.36  59
2025 12 17 15  06 39 44.778   +81 31 48.94  .89611 1.6413 121.5 21.0 1.38  59
2025 12 17 16  06 39 38.412   +81 32 17.16  .89615 1.6413 121.5 21.0 1.40  59
2025 12 17 17  06 39 32.024   +81 32 45.29  .89620 1.6413 121.5 21.0 1.42  58
2025 12 17 18  06 39 25.615   +81 33 13.33  .89624 1.6413 121.5 21.0 1.45  58
2025 12 17 19  06 39 19.185   +81 33 41.28  .89629 1.6413 121.5 21.0 1.47  58
2025 12 17 20  06 39 12.733   +81 34 09.15  .89633 1.6413 121.5 21.0 1.49  58
2025 12 17 21  06 39 06.260   +81 34 36.92  .89638 1.6413 121.5 21.0 1.51  58
2025 12 17 22  06 38 59.766   +81 35 04.61  .89642 1.6414 121.5 21.0 1.53  58